GW6101 Weather Reports


Display with metric or nautical units.
time (UTC)temp
F
wind
direction
speed
MPH
gust
MPH
rain 1hr
in
rain 24hr
in
rain mn
in
humidity
%
barometer
mb
20260504110508 48 221 0.0 0.0 0.00 0.00 0.00 68 1015.3
20260504100507 48 249 0.0 0.0 0.00 0.00 0.00 67 1015.0
20260504082008 47 293 0.0 0.0 0.00 0.00 0.00 69 1015.5
20260504081512 47 319 0.0 0.0 0.00 0.00 0.00 66 1015.4
20260504081005 47 360 0.0 0.0 0.00 0.00 0.00 68 1015.3
20260504080506 47 323 0.0 0.0 0.00 0.00 0.00 68 1015.4
20260504050507 41 360 0.0 1.0 0.00 0.00 0.00 77 1016.0
20260504050019 41 360 0.0 1.0 0.00 0.00 0.00 77 1016.0
20260504045507 42 360 0.0 0.0 0.00 0.00 0.00 75 1016.0
20260504045004 42 264 0.0 0.0 0.00 0.00 0.00 75 1016.0
20260504044522 42 264 0.0 0.0 0.00 0.00 0.00 74 1016.1
20260504044004 43 264 0.0 2.0 0.00 0.00 0.00 72 1016.1
20260504043508 43 220 0.0 2.0 0.00 0.00 0.00 72 1016.0
20260504043021 43 219 0.0 0.0 0.00 0.00 0.00 70 1015.9
20260504042509 44 219 0.0 0.0 0.00 0.00 0.00 69 1015.9
20260504042005 44 219 0.0 0.0 0.00 0.00 0.00 66 1015.9
20260504041515 45 219 0.0 0.0 0.00 0.00 0.00 63 1015.9
20260504041006 45 219 0.0 1.0 0.00 0.00 0.00 60 1015.9
20260504040507 46 219 0.0 1.0 0.00 0.00 0.00 59 1015.9
20260504040024 46 219 0.0 0.0 0.00 0.00 0.00 58 1015.8
20260504035510 47 219 0.0 0.0 0.00 0.00 0.00 56 1015.8
20260504035007 47 219 0.0 0.0 0.00 0.00 0.00 57 1015.9
20260504034529 47 220 0.0 0.0 0.00 0.00 0.00 57 1015.9
20260504034007 48 220 0.0 0.0 0.00 0.00 0.00 57 1015.9
20260504033507 48 220 0.0 1.0 0.00 0.00 0.00 55 1015.9
20260504033034 49 220 0.0 2.0 0.00 0.00 0.00 55 1015.9
20260504032509 49 220 0.0 2.0 0.00 0.00 0.00 56 1015.9
20260504032009 49 220 0.0 2.0 0.00 0.00 0.00 55 1015.8
20260504031527 49 233 1.0 5.0 0.00 0.00 0.00 55 1015.9
20260504031006 49 219 2.0 5.0 0.00 0.00 0.00 55 1015.8
20260504030507 47 224 2.0 4.0 0.00 0.00 0.00 60 1015.7
20260504030017 44 223 1.0 2.0 0.00 0.00 0.00 70 1015.7
20260504025507 44 263 0.0 0.0 0.00 0.00 0.00 74 1015.7
20260504025009 44 280 0.0 0.0 0.00 0.00 0.00 73 1015.7
20260504024539 44 280 0.0 0.0 0.00 0.00 0.00 73 1015.6
20260504024008 44 280 0.0 0.0 0.00 0.00 0.00 72 1015.4
20260504023508 44 280 0.0 0.0 0.00 0.00 0.00 72 1015.4
20260504023021 44 280 0.0 0.0 0.00 0.00 0.00 72 1015.4
20260504022508 44 280 0.0 0.0 0.00 0.00 0.00 71 1015.4
20260504022014 45 280 0.0 0.0 0.00 0.00 0.00 71 1015.4
20260504021521 45 280 0.0 0.0 0.00 0.00 0.00 70 1015.3
20260504021008 45 280 0.0 0.0 0.00 0.00 0.00 69 1015.4
20260504020509 46 281 0.0 0.0 0.00 0.00 0.00 69 1015.4
20260504020022 46 280 0.0 0.0 0.00 0.00 0.00 67 1015.3
20260504015507 46 280 0.0 0.0 0.00 0.00 0.00 67 1015.2
20260504015007 46 280 0.0 0.0 0.00 0.00 0.00 66 1015.1
20260504014517 47 281 0.0 0.0 0.00 0.00 0.00 65 1015.1
20260504014010 47 280 0.0 0.0 0.00 0.00 0.00 63 1015.1
20260504013506 47 280 0.0 0.0 0.00 0.00 0.00 63 1015.0
20260504013023 48 280 0.0 0.0 0.00 0.00 0.00 61 1015.0
20260504012507 48 280 0.0 0.0 0.00 0.00 0.00 60 1015.0
20260504012008 48 280 0.0 0.0 0.00 0.00 0.00 59 1014.9
20260504011523 49 280 0.0 0.0 0.00 0.00 0.00 58 1014.9
20260504011006 50 281 0.0 0.0 0.00 0.00 0.00 55 1014.9
20260504010510 50 281 0.0 0.0 0.00 0.00 0.00 55 1014.9
20260504010011 50 280 0.0 0.0 0.00 0.00 0.00 55 1015.0
20260504005504 51 280 0.0 0.0 0.00 0.00 0.00 54 1014.9
20260504005006 51 281 0.0 0.0 0.00 0.00 0.00 51 1014.9
20260504004532 52 281 0.0 0.0 0.00 0.00 0.00 49 1014.9
20260504004008 52 280 0.0 0.0 0.00 0.00 0.00 45 1014.8
20260504003507 53 280 0.0 0.0 0.00 0.00 0.00 48 1014.6
20260504003023 54 280 0.0 0.0 0.00 0.00 0.00 45 1014.6
20260504002509 56 280 0.0 0.0 0.00 0.00 0.00 41 1014.5
20260504002009 56 281 0.0 1.0 0.00 0.00 0.00 39 1014.5
20260504001504 57 280 0.0 2.0 0.00 0.00 0.00 37 1014.5
20260504001007 57 258 0.0 2.0 0.00 0.00 0.00 37 1014.6
20260504000502 57 302 0.0 2.0 0.00 0.00 0.00 38 1014.6
20260504000007 58 302 0.0 2.0 0.00 0.00 0.00 36 1014.5
20260503235504 59 302 0.0 4.0 0.00 0.00 0.00 33 1014.4
20260503235003 60 284 0.0 4.0 0.00 0.00 0.00 32 1014.4
20260503234512 60 286 0.0 6.0 0.00 0.00 0.00 31 1014.4
20260503234007 61 282 2.0 6.0 0.00 0.00 0.00 30 1014.3
20260503233505 61 294 2.0 6.0 0.00 0.00 0.00 30 1014.3
20260503233018 61 300 2.0 5.0 0.00 0.00 0.00 29 1014.3
20260503232511 62 315 3.0 9.0 0.00 0.00 0.00 29 1014.3
20260503232008 62 303 2.0 9.0 0.00 0.00 0.00 28 1014.2
20260503231523 62 290 2.0 10.0 0.00 0.00 0.00 29 1014.2
20260503231012 62 262 4.0 10.0 0.00 0.00 0.00 28 1014.1
20260503230511 62 307 4.0 10.0 0.00 0.00 0.00 29 1014.1
20260503230006 63 288 3.0 9.0 0.00 0.00 0.00 28 1014.1
20260503225503 63 305 5.0 9.0 0.00 0.00 0.00 28 1014.0
20260503225003 63 277 2.0 9.0 0.00 0.00 0.00 28 1014.1
20260503224509 63 254 4.0 9.0 0.00 0.00 0.00 27 1014.1
20260503224008 63 314 4.0 9.0 0.00 0.00 0.00 27 1014.1
20260503223504 63 269 2.0 11.0 0.00 0.00 0.00 27 1014.2
20260503223015 63 220 4.0 11.0 0.00 0.00 0.00 28 1014.1
20260503222509 63 267 3.0 12.0 0.00 0.00 0.00 27 1014.1
20260503222006 63 256 4.0 12.0 0.00 0.00 0.00 28 1014.2
20260503221521 63 230 6.0 12.0 0.00 0.00 0.00 27 1014.2
20260503221012 63 257 3.0 12.0 0.00 0.00 0.00 27 1014.2
20260503220508 63 263 7.0 12.0 0.00 0.00 0.00 26 1014.2
20260503220023 63 215 6.0 12.0 0.00 0.00 0.00 27 1014.3
20260503215512 63 329 5.0 14.0 0.00 0.00 0.00 26 1014.2
20260503215005 64 284 5.0 12.0 0.00 0.00 0.00 27 1014.2
20260503214506 63 347 5.0 11.0 0.00 0.00 0.00 27 1014.3
20260503214004 63 251 5.0 9.0 0.00 0.00 0.00 27 1014.3
20260503213503 64 285 2.0 9.0 0.00 0.00 0.00 27 1014.4
20260503213017 63 289 3.0 11.0 0.00 0.00 0.00 26 1014.4
20260503212506 63 284 5.0 11.0 0.00 0.00 0.00 27 1014.4
20260503212009 63 273 3.0 12.0 0.00 0.00 0.00 27 1014.4
20260503211522 63 279 5.0 12.0 0.00 0.00 0.00 27 1014.4
20260503211008 64 243 4.0 11.0 0.00 0.00 0.00 26 1014.4
20260503210506 63 266 4.0 8.0 0.00 0.00 0.00 26 1014.4
20260503210023 63 296 4.0 15.0 0.00 0.00 0.00 28 1014.4
20260503205509 63 312 3.0 15.0 0.00 0.00 0.00 28 1014.3
20260503205008 63 49 2.0 13.0 0.00 0.00 0.00 29 1014.3
20260503204528 62 248 3.0 14.0 0.00 0.00 0.00 26 1014.5
20260503204012 63 280 4.0 14.0 0.00 0.00 0.00 27 1014.6
20260503203506 63 304 6.0 14.0 0.00 0.00 0.00 27 1014.6
20260503203012 62 289 5.0 14.0 0.00 0.00 0.00 26 1014.6
20260503202507 62 278 6.0 15.0 0.00 0.00 0.00 27 1014.6
20260503202009 62 245 7.0 15.0 0.00 0.00 0.00 28 1014.6
20260503201516 61 253 5.0 10.0 0.00 0.00 0.00 28 1014.6
20260503201005 62 275 4.0 14.0 0.00 0.00 0.00 27 1014.8
20260503200508 61 267 3.0 14.0 0.00 0.00 0.00 27 1014.8
20260503200020 62 285 5.0 12.0 0.00 0.00 0.00 30 1015.0
20260503195509 62 301 7.0 14.0 0.00 0.00 0.00 28 1015.0
20260503195010 62 326 6.0 14.0 0.00 0.00 0.00 29 1015.0
20260503194524 60 300 8.0 14.0 0.00 0.00 0.00 30 1015.1
20260503194007 61 286 6.0 14.0 0.00 0.00 0.00 28 1015.3
20260503193511 62 290 6.0 15.0 0.00 0.00 0.00 29 1015.3
20260503193038 63 307 4.0 15.0 0.00 0.00 0.00 28 1015.3
20260503192511 62 337 7.0 15.0 0.00 0.00 0.00 28 1015.4
20260503192007 61 289 6.0 14.0 0.00 0.00 0.00 28 1015.4
20260503191515 60 330 4.0 13.0 0.00 0.00 0.00 30 1015.6
20260503191008 61 352 3.0 20.0 0.00 0.00 0.00 29 1015.7
20260503190508 61 268 6.0 20.0 0.00 0.00 0.00 32 1015.8
20260503190025 60 256 8.0 16.0 0.00 0.00 0.00 30 1015.8
20260503185508 60 294 8.0 16.0 0.00 0.00 0.00 31 1015.8
20260503185010 60 286 8.0 15.0 0.00 0.00 0.00 32 1015.9
20260503184524 59 276 4.0 9.0 0.00 0.00 0.00 31 1016.0
20260503184008 60 300 3.0 15.0 0.00 0.00 0.00 31 1016.0
20260503183508 60 289 4.0 18.0 0.00 0.00 0.00 31 1016.2
20260503183027 61 284 9.0 18.0 0.00 0.00 0.00 31 1016.2
20260503182514 60 257 8.0 17.0 0.00 0.00 0.00 31 1016.2
20260503182017 61 289 6.0 17.0 0.00 0.00 0.00 32 1016.2
20260503181526 59 284 7.0 13.0 0.00 0.00 0.00 32 1016.3
20260503181004 60 267 4.0 13.0 0.00 0.00 0.00 32 1016.3
20260503180508 59 272 5.0 18.0 0.00 0.00 0.00 33 1016.4
20260503180018 58 248 8.0 18.0 0.00 0.00 0.00 33 1016.5
20260503175507 59 64 6.0 14.0 0.00 0.00 0.00 33 1016.5
20260503175008 58 274 4.0 15.0 0.00 0.00 0.00 34 1016.5
20260503174527 58 292 7.0 15.0 0.00 0.00 0.00 34 1016.6
20260503174009 58 281 4.0 17.0 0.00 0.00 0.00 36 1016.7
20260503173027 57 315 5.0 14.0 0.00 0.00 0.00 35 1016.7
20260503172513 58 273 5.0 15.0 0.00 0.00 0.00 38 1016.7
20260503172011 57 299 5.0 20.0 0.00 0.00 0.00 35 1016.8
20260503171526 58 319 5.0 20.0 0.00 0.00 0.00 36 1016.7
20260503170510 55 210 5.0 13.0 0.00 0.00 0.00 36 1016.9
20260503131008 48 306 4.0 14.0 0.00 0.00 0.00 47 1018.1
20260503130508 48 286 9.0 15.0 0.00 0.00 0.00 47 1018.1